SCP
1 1 1 1 1 1 0 0 0 0 0 0 0 0 0 0 0 0 0 0 1 1 1 2 3 4 4 4 4 4 3 3 2 1 1 1 1 1 1 1 1 1 1 1 1 1 1 1 1
1 1 1 1 1 1 0 0 0 0 0 0 0 0 0 0 0 0 1 0 1 1 1 2 3 4 4 4 4 4 4 3 3 2 1 1 1 1 1 1 1 1 1 1 1 1 1 1 1
1 1 1 1 0 0 0 0 0 0 0 0 0 0 0 0 0 1 1 1 1 1 2 2 2 3 4 4 4 5 4 4 3 2 2 1 1 1 1 1 1 1 1 1 1 1 1 1 1
1 1 1 1 0 0 0 0 0 0 0 0 0 0 0 0 1 1 1 1 1 1 2 2 2 3 3 4 4 5 4 4 4 3 2 1 1 1 1 1 1 1 1 1 1 1 1 1 1
1 1 1 0 0 0 0 0 0 0 0 0 0 0 0 1 1 1 1 1 1 2 2 2 2 2 3 3 4 4 4 4 4 4 3 2 1 1 1 1 1 1 1 1 1 1 1 1 1
1 1 1 0 0 0 0 0 0 0 0 0 0 0 1 1 1 1 1 1 2 2 2 2 2 2 2 3 4 4 4 4 4 4 3 3 2 1 1 1 1 1 1 1 1 1 1 1 1
1 1 0 0 0 0 0 0 0 0 0 0 0 0 1 1 1 1 1 2 2 2 2 2 2 2 2 2 3 4 5 5 5 4 4 3 2 2 2 2 1 1 1 1 1 1 1 1 1
0 1 0 0 0 0 0 0 0 0 0 1 1 1 1 1 1 1 2 2 2 2 2 2 2 2 2 2 2 3 4 5 4 4 3 3 2 2 2 1 1 1 1 1 1 1 1 1 1
0 0 0 0 0 0 0 0 0 0 1 1 1 1 1 1 1 1 2 2 2 2 2 2 2 2 2 1 1 2 2 3 3 3 3 2 2 1 1 1 1 1 1 1 1 1 1 1 1
0 0 0 0 0 0 0 0 0 0 0 1 1 1 1 1 1 1 2 2 2 2 2 2 2 2 2 1 1 1 2 2 2 2 2 2 2 1 1 1 1 1 1 1 1 1 1 1 1
0 0 0 0 0 0 0 0 0 0 0 0 1 1 1 1 1 1 2 2 2 2 2 2 2 2 2 2 2 2 2 2 2 2 2 2 2 2 2 1 1 1 1 1 1 1 1 1 1
0 0 0 0 0 0 0 0 0 0 0 0 1 1 1 1 1 1 1 2 2 2 2 2 2 2 1 2 2 2 2 2 2 2 2 3 3 3 2 2 1 1 1 1 1 1 1 1 1
0 0 0 0 0 0 0 0 0 0 0 0 1 0 0 1 1 1 2 2 2 2 2 2 2 1 1 1 1 2 2 2 2 2 2 3 3 3 2 2 1 1 1 1 1 1 0 0 0
0 0 0 0 0 0 0 0 0 0 0 0 0 0 0 1 1 2 2 2 2 2 2 2 2 1 1 1 1 1 2 2 2 2 2 2 2 2 2 2 1 1 1 1 1 0 0 0 0
0 0 0 0 0 0 0 0 0 0 0 0 0 0 0 0 1 1 2 2 2 2 2 2 2 1 1 1 1 1 2 2 2 2 1 1 2 2 1 1 1 1 1 0 0 0 0 0 0
0 0 0 0 0 0 0 0 0 0 0 0 0 0 0 0 0 1 1 1 1 2 2 2 2 1 1 1 2 2 2 2 2 1 1 1 1 1 1 1 1 1 1 0 0 0 0 0 0
0 0 0 0 0 0 0 0 0 0 0 0 0 0 0 0 0 0 0 1 1 1 1 1 1 1 1 1 2 2 2 2 1 1 1 1 1 1 1 1 1 1 1 1 1 0 0 0 0
0 0 0 0 0 0 0 0 0 0 0 0 0 0 0 0 0 1 1 1 1 1 1 1 1 1 1 1 2 2 2 2 1 1 1 1 1 1 1 1 1 1 1 1 1 1 0 0 0
0 0 0 0 0 0 0 0 0 0 0 0 0 0 0 0 0 1 1 1 1 0 1 1 1 1 1 1 1 1 1 1 1 1 1 1 1 1 1 1 1 1 0 0 0 0 0 0 0
0 0 0 0 0 0 0 0 0 0 0 0 0 0 0 0 0 0 0 1 0 0 1 1 1 0 1 1 1 1 1 1 1 1 1 1 1 1 1 1 1 0 0 0 0 0 0 0 0
0 0 0 0 0 0 0 0 0 0 0 0 0 0 0 0 0 0 0 0 0 0 0 1 0 0 0 1 1 1 1 1 1 1 1 1 1 1 1 1 1 0 0 0 0 0 0 1 1
0 0 0 0 0 0 0 0 0 0 0 0 0 0 0 0 0 0 0 0 0 0 0 1 0 0 0 0 1 1 1 1 1 1 1 1 1 1 1 1 1 1 1 1 1 1 1 1 1
0 0 0 0 0 0 0 0 0 0 0 0 0 0 0 0 0 0 0 0 0 0 0 0 0 0 0 0 1 0 0 1 1 1 1 1 1 1 1 1 1 1 2 1 1 1 1 1 1
0 0 0 0 0 0 0 0 0 0 0 0 0 0 0 0 0 0 0 0 0 0 0 0 0 0 0 0 0 0 0 1 1 1 1 1 1 1 1 1 2 2 2 2 2 2 2 2 2
0 0 0 0 0 0 0 0 0 0 0 0 0 0 0 0 0 0 0 0 0 0 0 0 0 0 0 0 0 0 0 1 1 0 0 1 1 1 1 2 2 2 2 2 2 2 2 2 2
0 0 0 0 0 0 0 0 0 0 0 0 0 0 0 0 0 0 0 0 0 0 0 0 0 0 0 0 0 0 0 0 0 0 0 1 1 1 1 2 2 2 2 2 1 1 1 1 1
0 0 0 0 0 0 0 0 0 0 0 0 0 0 0 0 0 0 0 0 0 0 0 0 0 0 0 0 0 0 0 0 0 0 0 0 1 1 1 1 1 1 1 1 1 1 1 0 0
0 0 0 0 0 0 0 0 0 0 0 0 0 0 0 0 0 0 0 0 0 0 0 0 0 0 0 0 0 0 0 0 0 0 0 0 0 0 0 1 1 1 0 0 0 0 0 0 0
0 0 0 0 0 0 0 0 0 0 0 0 0 0 0 0 0 0 0 0 0 0 0 0 0 0 0 0 0 0 0 0 0 0 0 0 0 0 0 0 0 0 0 0 0 0 0 0 0
0 0 0 0 0 0 0 0 0 0 0 0 0 0 0 0 0 0 0 0 0 0 0 0 0 0 0 0 0 0 0 0 0 0 0 0 0 0 0 0 0 0 0 0 0 0 0 0 0
Wind_Speed
1 1 3 4 5 6 10 7 5 5 4 2 2 3 3 3 2 2 4 4 5 7 7 8 7 8 9 9 8 8 8 8 8 8 8 8 9 9 9 9 9 8 8 9 9 9 9 9 9
1 2 4 4 7 10 9 8 8 6 2 3 3 4 4 3 2 3 3 4 5 7 7 7 8 8 8 8 8 8 8 8 8 8 8 7 8 8 8 8 8 8 8 8 8 8 8 9 8
2 3 4 5 8 11 7 5 6 4 3 4 4 3 3 1 2 2 3 6 6 7 7 8 8 8 8 9 8 8 8 7 7 7 7 7 8 8 7 7 7 7 7 7 7 7 7 7 8
3 4 4 7 13 11 7 4 4 5 4 4 4 4 2 2 1 2 4 6 7 7 7 8 7 8 8 8 8 7 7 7 7 8 7 7 8 8 7 6 6 6 6 6 6 6 7 6 7
3 4 7 9 13 9 7 5 4 6 5 4 5 4 3 3 2 3 6 7 7 7 6 8 7 8 8 8 8 7 7 7 7 7 7 7 7 7 7 6 6 6 6 6 6 6 6 6 6
4 5 8 12 13 9 8 7 7 7 6 4 5 5 2 3 4 5 6 6 6 6 6 7 7 7 8 8 8 7 7 7 7 7 7 6 6 7 7 6 6 5 5 5 6 6 5 6 6
5 5 9 11 10 10 7 6 8 8 8 6 5 5 3 5 4 5 6 6 6 6 6 6 6 7 7 7 7 6 6 6 6 6 7 6 6 6 6 6 5 5 5 5 5 5 5 5 5
3 4 8 10 11 10 6 5 5 7 7 3 4 6 3 5 6 6 6 6 6 5 5 5 5 5 6 6 7 6 6 6 6 6 6 5 5 5 5 5 5 4 4 4 5 5 5 5 4
4 7 10 11 9 7 5 6 5 3 3 3 4 3 1 6 8 7 6 6 6 5 5 5 5 5 5 5 6 6 5 5 5 5 6 4 3 4 3 4 4 4 4 4 4 4 4 4 4
6 9 11 7 7 5 5 6 5 5 7 6 5 4 4 7 9 9 9 9 8 7 6 5 6 5 5 4 4 4 3 4 4 3 4 3 2 2 2 4 4 4 4 4 4 4 4 2 2
6 9 8 7 6 5 6 6 6 8 10 9 8 7 7 9 10 10 10 9 8 8 7 6 6 5 5 4 3 2 2 3 3 4 4 3 3 2 2 1 2 2 2 2 3 3 2 1 1
6 8 8 7 5 6 8 7 8 11 11 7 7 6 8 10 11 11 10 9 8 8 7 6 6 5 5 4 3 3 3 2 2 3 3 3 2 2 1 1 1 1 1 1 1 1 2 1 1
10 8 7 8 7 8 8 10 10 12 11 7 6 7 9 10 11 10 9 8 8 8 8 7 7 6 5 4 3 3 3 3 3 3 3 3 2 2 2 1 1 1 1 1 0 1 2 2 1
5 7 8 8 9 8 10 12 11 12 8 7 8 8 9 10 11 10 10 9 9 9 8 8 7 7 6 5 4 3 3 3 3 3 3 3 2 2 2 2 1 1 1 0 1 1 1 1 1
4 6 8 9 9 7 7 13 14 11 8 9 9 9 9 9 10 10 10 10 9 9 8 8 8 7 7 6 5 4 3 3 3 3 3 3 2 2 2 2 1 1 1 1 1 1 1 1 1
5 8 9 6 6 6 9 15 10 6 8 10 9 9 9 9 10 10 9 9 8 8 8 8 7 7 8 6 5 4 4 4 3 3 3 4 3 3 2 2 2 1 1 1 1 1 1 1 1
8 9 10 8 6 6 10 14 7 4 8 11 10 9 9 9 10 10 9 8 9 8 8 8 8 8 8 7 5 5 4 4 3 3 3 3 4 3 2 2 1 2 2 2 1 1 1 1 1
8 10 10 10 5 7 12 15 11 8 9 11 11 10 10 10 11 9 9 8 8 8 8 8 8 8 7 6 5 4 4 3 3 3 3 4 3 3 3 2 2 2 1 2 2 1 1 1 0
8 10 12 10 6 9 13 16 14 11 11 12 12 11 10 10 9 8 8 8 8 8 8 8 8 8 7 6 6 5 5 4 3 3 4 4 4 4 3 2 2 2 2 2 2 1 1 0 0
9 11 12 9 5 8 12 17 14 12 13 12 12 11 11 9 8 8 8 8 9 9 9 9 9 9 9 7 5 4 4 3 3 3 4 4 4 4 3 4 3 3 2 3 2 2 1 0 0
10 12 11 9 7 7 10 13 11 8 9 9 10 10 9 9 8 8 8 8 8 9 10 8 9 9 9 8 6 4 4 3 3 4 4 4 4 4 4 4 4 3 3 3 3 3 2 1 1
9 7 9 8 8 6 6 9 8 7 8 8 9 8 8 7 7 7 7 8 8 8 8 9 9 9 9 9 8 9 6 6 5 4 4 4 5 5 5 5 5 4 3 3 3 3 2 3 2
4 3 5 7 7 8 8 9 8 6 8 7 6 6 6 6 5 5 6 7 7 7 7 7 8 8 8 9 9 9 7 5 4 4 5 5 5 5 5 5 4 4 4 4 4 3 3 3 3
1 2 4 4 5 8 9 10 8 5 6 5 4 4 4 4 4 4 3 4 5 5 6 7 8 8 8 9 9 9 8 7 7 6 5 5 4 4 5 5 5 5 4 4 4 4 4 3 3
3 3 3 4 6 6 2 7 8 4 4 5 5 4 3 3 3 3 3 3 4 5 6 6 8 8 8 9 9 9 8 8 8 7 6 5 4 4 5 5 5 5 4 4 4 4 4 4 4
5 5 5 5 5 3 4 8 5 3 3 4 4 3 3 2 2 2 3 3 4 5 6 6 7 7 8 8 8 8 8 6 5 6 6 6 4 4 5 5 5 5 5 4 4 4 4 4 4
4 5 3 3 4 6 6 6 6 3 3 3 2 2 2 2 2 2 2 3 3 4 5 6 7 7 7 7 7 7 7 6 6 6 5 4 4 4 5 5 5 5 5 5 5 4 4 4 4
4 2 3 4 5 6 6 7 4 3 3 2 1 2 2 2 1 1 2 2 3 3 4 5 5 6 6 7 7 5 7 6 6 5 6 5 5 4 5 5 5 5 5 5 4 4 4 4 4
4 4 4 4 4 5 6 4 1 2 2 2 2 2 2 2 2 1 1 2 2 3 4 4 5 5 5 6 6 6 6 6 6 5 5 5 5 5 5 5 4 5 5 5 5 4 4 5 4
5 5 6 5 5 5 6 5 2 1 2 3 3 2 2 2 2 2 2 1 2 3 3 4 4 4 4 5 5 6 5 6 6 5 5 5 5 5 5 5 4 5 5 5 5 5 5 5 5
Wind_Direction
213 206 209 212 213 223 233 220 214 190 196 197 199 219 227 227 259 44 72 134 138 149 153 153 147 139 136 134 133 127 123 121 123 127 128 127 127 125 121 115 111 108 104 99 96 94 92 90 86
216 201 205 216 228 224 224 216 210 213 169 152 191 219 223 217 12 68 119 143 152 148 150 149 138 138 137 136 134 130 129 127 127 130 129 128 127 123 120 117 114 111 107 104 100 96 93 92 89
185 231 217 211 226 232 220 196 206 190 185 205 192 225 253 223 122 120 114 151 154 147 147 134 134 137 136 136 136 133 131 132 131 131 132 129 125 121 119 117 114 112 110 109 105 100 98 96 94
200 194 214 228 226 232 238 192 180 184 182 209 212 193 176 48 43 98 132 155 152 148 147 135 135 135 133 133 133 133 137 136 132 129 127 128 127 121 112 109 115 114 111 110 108 106 102 99 101
218 211 211 225 234 230 229 230 210 212 201 192 209 215 175 121 101 125 148 156 152 148 145 141 136 133 131 129 125 127 137 137 130 127 127 127 125 121 115 110 110 116 116 114 111 108 106 105 103
196 214 221 226 228 227 224 222 223 230 221 210 220 225 181 133 145 145 151 156 152 146 143 139 137 134 132 130 127 124 119 123 124 120 119 119 121 122 120 117 116 120 123 122 119 113 110 109 104
218 215 232 234 233 231 226 216 226 228 224 218 224 226 176 167 154 152 154 153 152 147 145 143 146 145 137 129 125 125 120 116 114 112 110 110 116 120 123 120 114 116 123 123 120 118 114 109 103
240 227 230 230 232 235 217 207 227 237 235 223 219 229 198 158 151 153 152 154 154 150 149 149 150 153 152 145 128 123 118 112 109 108 105 106 116 121 120 127 118 120 117 118 117 116 113 107 105
215 228 230 226 227 232 205 208 204 231 219 204 224 265 37 137 154 158 161 166 169 166 163 159 156 157 155 148 138 134 118 112 117 113 104 118 142 140 134 102 101 120 118 120 119 112 108 110 115
210 228 234 237 241 238 215 225 218 210 218 223 217 207 166 165 173 179 183 185 186 183 178 172 165 162 160 149 148 150 145 139 143 140 136 139 131 113 108 88 82 101 108 125 119 113 126 163 151
213 234 240 241 243 250 242 240 232 232 238 236 233 210 186 191 194 200 201 200 197 189 183 180 171 170 166 156 155 152 147 146 148 141 139 142 133 126 121 118 118 124 146 160 142 152 166 169 151
225 239 244 246 241 244 247 250 244 242 251 261 250 223 200 206 206 209 209 207 201 194 190 185 177 176 173 164 160 160 155 156 152 149 148 153 144 140 132 131 126 136 149 159 170 172 164 168 178
231 242 247 250 250 249 253 250 256 255 258 256 243 221 213 218 220 218 214 210 202 199 195 189 183 179 173 168 164 166 166 165 157 158 155 160 159 156 147 139 126 126 121 152 194 192 173 177 184
236 241 250 253 249 248 247 255 249 250 249 239 229 224 222 223 224 218 212 209 206 202 196 190 188 185 178 175 171 172 172 165 166 165 159 169 168 163 162 158 150 152 146 182 223 208 196 213 206
229 251 255 247 243 239 244 251 240 245 238 236 235 232 231 230 227 220 216 213 210 204 198 193 189 188 186 183 178 172 173 175 173 166 167 169 172 171 169 166 166 163 169 189 207 182 202 211 207
232 238 243 232 226 224 229 251 243 232 231 243 244 240 237 234 232 229 221 217 215 208 200 193 188 190 190 188 183 177 176 179 178 170 170 175 176 177 175 177 174 171 181 185 184 184 198 201 227
221 236 246 248 222 225 232 257 252 234 242 250 249 245 240 239 236 233 225 218 214 209 202 195 191 191 191 187 182 177 174 179 180 179 176 175 180 188 188 180 175 179 181 183 184 186 208 214 222
234 243 250 249 232 234 244 258 259 248 250 255 255 249 243 240 237 232 226 219 215 210 204 199 194 191 185 180 175 172 174 176 181 184 183 180 178 183 182 171 171 178 184 182 184 172 179 212 220
256 254 258 261 263 252 255 263 266 258 251 252 252 249 245 244 242 233 225 217 211 207 203 198 196 190 182 179 181 182 183 180 182 184 184 186 182 180 183 175 176 184 185 191 186 176 167 167 288
249 253 260 269 264 259 266 267 265 256 250 250 253 252 250 249 242 232 222 212 207 205 203 198 194 191 187 187 185 189 181 185 183 179 184 186 184 181 185 185 186 186 185 185 181 177 200 195 250
247 250 258 268 282 260 272 267 253 249 247 247 249 253 252 247 241 233 221 216 209 204 201 197 193 190 189 185 177 167 164 161 173 183 185 187 187 187 187 190 191 188 190 190 189 194 202 200 217
254 258 259 259 258 256 253 274 258 254 247 244 243 242 244 244 243 237 225 217 210 204 196 194 191 188 187 185 184 182 188 191 193 188 185 183 189 195 193 192 193 190 194 194 192 196 204 198 201
255 275 257 252 252 262 243 255 261 242 247 244 237 239 243 244 240 234 228 224 218 203 193 190 187 186 186 189 191 193 198 195 184 182 183 185 188 197 197 195 195 193 195 197 193 191 200 205 208
213 261 260 240 235 247 236 239 259 237 243 247 241 241 242 242 235 231 225 220 212 196 189 186 184 186 187 189 193 199 198 191 183 187 188 188 187 193 196 197 198 199 198 195 198 194 199 204 208
215 236 246 223 219 238 215 243 254 261 253 251 255 253 254 244 231 221 210 207 200 192 187 188 186 187 188 192 196 200 199 194 193 192 194 193 192 195 196 197 200 200 200 198 198 198 202 204 205
222 231 248 261 258 269 232 244 256 281 271 260 256 253 252 252 241 224 213 204 198 192 190 190 191 190 190 195 197 198 197 197 197 195 193 195 196 198 198 199 201 199 198 197 196 199 201 206 209
203 220 263 272 278 265 242 252 266 249 246 233 236 241 254 272 264 242 224 208 201 192 192 194 193 192 193 196 196 194 192 198 197 195 196 195 194 193 195 199 199 197 197 197 194 200 201 205 212
259 208 198 220 250 257 253 256 251 234 252 265 253 241 265 290 290 262 235 221 213 201 195 196 196 195 191 193 195 194 194 196 195 192 193 193 191 189 193 199 200 196 195 195 198 202 203 205 211
199 203 222 230 259 269 270 260 344 266 277 281 271 271 275 287 289 276 263 237 214 198 193 191 193 193 189 189 192 193 191 190 192 194 195 194 189 187 193 197 200 199 197 195 199 204 203 208 211
250 228 214 234 234 248 269 272 67 311 303 286 294 297 278 281 286 287 279 239 198 188 188 188 187 188 190 189 189 189 188 186 190 194 192 190 189 187 191 194 199 201 199 199 200 201 205 208 212